Location: Unspecified
(0.0000°N, 0.0000°E)
Time: 08:32:43
(UTC+00:00)

S-56A Canister/Altair - Visible Passes

Search period start: 04 March 2015 00:00
Search period end: 14 March 2015 00:00
Orbit: 635 x 2501 km, 38.9° (Epoch: 03 March)

Date Brightness Start Highest point End Pass type
(mag) Time Alt. Az. Time Alt. Az. Time Alt. Az.
04 Mar 11.3 19:07:44 10° S 19:14:00 14° SSE 19:21:07 10° SE visible
04 Mar 10.5 21:10:08 10° SSW 21:20:09 36° S 21:20:09 36° S visible
04 Mar 11.6 23:16:36 10° SW 23:17:36 13° SW 23:17:36 13° SW visible
05 Mar 11.4 18:35:54 10° S 18:40:26 12° SSE 18:46:03 10° SE visible
05 Mar 10.4 20:37:13 10° SSW 20:49:38 37° SSE 20:49:38 37° SSE visible
05 Mar 11.2 22:43:09 10° SW 22:47:05 22° SW 22:47:05 22° SW visible
06 Mar 10.4 20:04:25 10° SSW 20:17:08 34° SE 20:19:12 33° SE visible
06 Mar 10.8 22:09:47 10° SW 22:16:40 33° SW 22:16:40 33° SW visible
07 Mar 10.6 19:31:43 10° SSW 19:43:46 30° SSE 19:48:51 25° ESE visible
07 Mar 10.3 21:36:32 10° SW 21:46:20 48° SW 21:46:20 48° SW visible
08 Mar 10.8 18:59:10 10° SSW 19:10:23 27° SSE 19:18:37 17° ESE visible
08 Mar 9.9 21:03:23 10° SW 21:16:06 64° SSW 21:16:06 64° SSW visible
08 Mar 11.6 23:12:11 10° WSW 23:13:35 13° WSW 23:13:35 13° WSW visible
09 Mar 11.0 18:26:45 10° SSW 18:36:59 23° SSE 18:48:05 10° E visible
09 Mar 9.7 20:30:21 10° SW 20:45:25 67° SE 20:45:58 66° SE visible
09 Mar 11.2 22:38:20 10° WSW 22:43:28 24° W 22:43:28 24° W visible
10 Mar 9.9 19:57:25 10° SW 20:12:10 60° SE 20:15:57 50° E visible
10 Mar 10.7 22:04:39 10° WSW 22:13:27 37° W 22:13:27 37° W visible
11 Mar 10.1 19:24:38 10° SSW 19:38:54 53° SE 19:46:02 33° E visible
11 Mar 10.2 21:31:07 10° WSW 21:43:33 54° WNW 21:43:33 54° WNW visible
12 Mar 10.3 18:51:57 10° SSW 19:05:36 47° SE 19:16:14 20° ENE visible
12 Mar 9.9 20:57:45 10° WSW 21:12:53 67° NW 21:13:46 66° NNW visible
12 Mar 11.7 23:10:18 10° W 23:11:18 12° WNW 23:11:18 12° WNW visible
13 Mar 10.4 18:19:25 10° SSW 18:32:18 42° SE 18:46:02 10° ENE visible
13 Mar 9.9 20:24:31 10° SW 20:39:43 75° NW 20:44:04 53° NNE visible
13 Mar 11.3 22:35:43 10° W 22:41:36 20° WNW 22:41:36 20° WNW visible
